Change the Weather History Date:

Friday, November 30, 2012

  Actual Average Record
Temperature  
Mean Temperature 62 °F -  
Max Temperature 68 °F 68 °F 73 °F (2002)
Min Temperature 56 °F 53 °F 55 °F (1998)
Degree Days  
Heating Degree Days 3    
Growing Degree Days 12 (Base 50)    
Moisture  
Dew Point 57 °F    
Average Humidity 88    
Maximum Humidity 100    
Minimum Humidity 59    
Precipitation  
Precipitation 0.08 in - - ()
Sea Level Pressure  
Sea Level Pressure 30.28 in    
Wind  
Wind Speed 2 mph ()    
Max Wind Speed 9 mph    
Max Gust Speed -    
Visibility 6.1 miles    
Events Fog , Rain    
Averages and records for this station are not official NWS values.
T = Trace of Precipitation, MM = Missing Value Source: Averaged Metar Reports

Daily Weather History Graph

Daily Weather History Graph

Search for Another Location

Airport or City:

Trip Planner

Search our weather history database for the weather conditions in past years. The results will help you decide how hot, cold, wet, or windy it might be!

Date:

Astronomy

Nov. 30, 2012 Rise Set
Actual Time 5:56 AM COT 5:44 PM COT
Civil Twilight 5:34 AM COT 6:06 PM COT
Nautical Twilight 5:08 AM COT 6:32 PM COT
Astronomical Twilight 4:42 AM COT 6:58 PM COT
Moon 7:34 PM COT (11/30) 7:28 AM COT (11/30)
Length of Visible Light 12h 32m
Length of Day
11h 47m
Waning Gibbous, 96% of the Moon is Illuminated
Nov 30
Waning Gibbous
Dec 6
Last Quarter
Dec 13
New
Dec 20
First Quarter
Dec 28
Full

Hourly Weather History & Observations

Time (COT) Temp. Dew Point Humidity Pressure Visibility Wind Dir Wind Speed Gust Speed Precip Events Conditions
12:00 AM 59.0 °F 57.2 °F 94% 30.30 in 6.2 mi Calm Calm - N/A   Mostly Cloudy
1:00 AM 59 °F 58 °F 94%  in 4 mi Calm Calm - -   Haze
1:00 AM 59.0 °F 57.2 °F 94% 30.31 in 3.7 mi Calm Calm - N/A   Light Drizzle
2:00 AM 59.0 °F 57.2 °F 94% 30.28 in 3.7 mi Calm Calm - N/A   Light Drizzle
3:00 AM 59.0 °F 57.2 °F 94% 30.26 in 3.1 mi Calm Calm - N/A   Light Drizzle
4:00 AM 58 °F 57 °F 95%  in 4 mi Calm Calm - - Fog Light Fog
4:00 AM 57.2 °F 57.2 °F 100% 30.27 in 4.3 mi Calm Calm - N/A Fog Fog
5:00 AM 57.2 °F 57.2 °F 100% 30.27 in 6.2 mi Calm Calm - N/A Fog Shallow Fog
5:30 AM 57.2 °F 57.2 °F 100% 30.27 in 6.2 mi Calm Calm - N/A Fog Shallow Fog
6:00 AM 57.2 °F 57.2 °F 100% 30.29 in 6.2 mi Calm Calm - N/A Fog Shallow Fog
7:00 AM 58 °F 57 °F 96%  in 3 mi Calm Calm - - Fog Patches of Fog
7:00 AM 59.0 °F 57.2 °F 94% 30.29 in 6.2 mi Calm Calm - N/A Fog Patches of Fog
8:00 AM 60.8 °F 57.2 °F 88% 30.31 in 6.2 mi East 4.6 mph - N/A   Mostly Cloudy
9:00 AM 62.6 °F 57.2 °F 82% 30.32 in 6.2 mi SSE 4.6 mph - N/A   Scattered Clouds
10:00 AM 63 °F 56 °F 73%  in 9 mi South 4.5 mph - -   Haze
10:00 AM 62.6 °F 57.2 °F 82% 30.33 in 6.2 mi South 4.6 mph - N/A   Scattered Clouds
11:00 AM 64.4 °F 55.4 °F 73% 30.32 in 6.2 mi Calm Calm - N/A   Scattered Clouds
12:00 PM 66.2 °F 55.4 °F 68% 30.30 in 6.2 mi ESE 6.9 mph - N/A   Scattered Clouds
1:00 PM 67 °F 56 °F 59%  in 9 mi NE 8.9 mph - -   Haze
1:00 PM 66.2 °F 55.4 °F 68% 30.28 in 6.2 mi NE 9.2 mph - N/A   Mostly Cloudy
2:00 PM 66.2 °F 55.4 °F 68% 30.26 in 6.2 mi NNW 9.2 mph - N/A   Mostly Cloudy
3:00 PM 66.2 °F 55.4 °F 68% 30.25 in 6.2 mi East 6.9 mph - N/A   Mostly Cloudy
3:20 PM - - N/A% 30.25 in 6.2 mi NE 6.9 mph - N/A Rain Rain
4:00 PM 61 °F 59 °F 92%  in 3 mi SSW 6.7 mph - - Rain Light Drizzle
4:00 PM 60.8 °F 59.0 °F 94% 30.24 in 6.2 mi SSW 6.9 mph - N/A   Light Drizzle
5:00 PM 62.6 °F 59.0 °F 88% 30.25 in 6.2 mi Calm Calm - N/A   Scattered Clouds
6:00 PM 60.8 °F 59.0 °F 94% 30.26 in 6.2 mi Variable 2.3 mph - N/A   Light Drizzle
7:00 PM 60 °F 59 °F 95%  in 12 mi Calm Calm - -   Haze
7:00 PM 60.8 °F 59.0 °F 94% 30.25 in 6.2 mi Variable 2.3 mph - N/A   Scattered Clouds
8:00 PM 59.0 °F 55.4 °F 88% 30.25 in 6.2 mi West 4.6 mph - N/A   Light Drizzle
9:00 PM 57.2 °F 55.4 °F 94% 30.28 in 6.2 mi Calm Calm - N/A Fog Patches of Fog
10:00 PM 58 °F 56 °F 91%  in 11 mi WSW 2.2 mph - -   Haze
10:00 PM 57.2 °F 55.4 °F 94% 30.28 in 6.2 mi Variable 2.3 mph - N/A   Mostly Cloudy
11:00 PM 57.2 °F 55.4 °F 94% 30.28 in 6.2 mi West 4.6 mph - N/A Fog Patches of Fog